Regional Weather Roundup
Issued by NWS

Home | Current Version | Previous Version | Graphics & Text | Print | Product List | Glossary On
Versions: 1 2 3 4 5 6 7 8 9 10 11 12 13 14 15 16 17 18 19 20 21 22 23 24 25 26 27 28 29 30 31 32 33 34 35 36 37 38 39 40 41 42 43 44 45 46 47 48 49 50
000
ASUS43 KFSD 171002
RWRSD

WEATHER ROUNDUP FOR SOUTH DAKOTA
NATIONAL WEATHER SERVICE SIOUX FALLS SD
400 AM CST WED DEC 17 2014

NOTE: "FAIR" INDICATES FEW OR NO CLOUDS BELOW 12,000 FEET WITH NO
SIGNIFICANT WEATHER AND/OR OBSTRUCTIONS TO VISIBILITY.


SDZ001>005-009-010-012>017-171100-
NORTHWEST AND NORTH CENTRAL SOUTH DAKOTA

CITY           SKY/WX    TMP DP  RH WIND       PRES   REMARKS
BUFFALO          N/A     17  14  88 SE17      30.02F WCI   1
FAITH            N/A     16  13  88 SE14      30.16F WCI   2
MOBRIDGE       CLOUDY    17  11  77 SE7       30.26F WCI   8
$$

SDZ012>016-024>037-041>051-057-063-072>074-171100-
SOUTHWEST AND SOUTH CENTRAL SOUTH DAKOTA

CITY           SKY/WX    TMP DP  RH WIND       PRES   REMARKS
RAPID CTY ARPT CLOUDY    18  16  92 SE10      30.07F WCI   6
PIERRE         CLOUDY    17  14  88 E7        30.27F WCI   8
CUSTER         PTCLDY    19  14  81 CALM      29.93F
ELLSWORTH AFB  CLOUDY    18  16  92 SE10      30.06F WCI   7
PHILIP         CLOUDY    19  15  84 E10       30.19F WCI   7
PINE RIDGE     CLOUDY    22  18  85 S8        30.07F WCI  12
WINNER         CLOUDY    19  15  84 E8        30.25F WCI   9
$$

SDZ004>011-016>023-039-040-171100-
NORTHEAST SOUTH DAKOTA

CITY           SKY/WX    TMP DP  RH WIND       PRES   REMARKS
ABERDEEN       PTCLDY     6   2  83 N3        30.35F
WATERTOWN      PTCLDY     3  -1  83 CALM      30.29F
SISSETON         N/A      3   1  91 N6        30.33F WCI  -8
$$

SDZ017-020-022-023-036>040-048>070-171100-
SOUTHEAST SOUTH DAKOTA

CITY           SKY/WX    TMP DP  RH WIND       PRES   REMARKS
SIOUX FALLS    MOCLDY     6   2  83 W5        30.33F WCI  -3
HURON          CLOUDY     0  -4  83 CALM      30.35S
MITCHELL       MOCLDY     7   3  84 CALM      30.35F
YANKTON        MOCLDY     7   5  92 NW5       30.36S WCI  -2
$$

ABBREVIATIONS USED IN REMARKS
   TC - TEMPERATURE IN CELSIUS
  WCI - WIND CHILL INDEX
   HX - HEAT INDEX
  VSB - VISIBILITY



USA.gov is the U.S. government's official web portal to all federal, state and local government web resources and services.